Back to catalog

STARLINK-5743

AliveCommunicationsVLEO
NORAD 55597·PAYLOAD·🇺🇸 United States

Launched Feb 12, 2023 from Cape Canaveral Space Force Station

Loading…

Next Passes (next 24 hours)

TLE

FreshSource: CelesTrak SupGP

Epoch: Sep 14, 2026, 21:54 UTC

1 55597C 23020AE  26257.91298611 -.00034336  00000+0 -12434-2 0  2570
2 55597  43.0024   5.3172 0001716 273.6021  30.1858 15.27602126    18

Track STARLINK-5743 in real time with AllMySat

Download on the App Store